Location: DaVinci Observatory
(43.1080°N, 78.6453°W)
Time: 01:25:04
(UTC-05:00)

Tiangong 2 - Pass Details

Date: 08 October 2017
Orbit: 386 x 390 km, 42.8° (Epoch: 16 December)

Event Time Altitude Azimuth Distance (km) Brightness Sun altitude
Exits shadow 05:49:58 12° 185° (S) 1,319 3.6 -17.3°
Maximum altitude 05:51:43 17° 149° (SSE) 1,090 3.6 -16.9°
Drops below altitude 10° 05:53:52 10° 107° (ESE) 1,424 5.0 -16.5°
Sets 05:56:27 0° 86° (E) 2,284 6.9 -16.1°
